Regional Weather Roundup
Issued by NWS

Home | Current Version | Previous Version | Text Only | Print | Product List | Glossary Off
Versions: 1 2 3 4 5 6 7 8 9 10 11 12 13 14 15 16 17 18 19 20 21 22 23 24 25 26 27 28 29 30 31 32 33 34 35 36 37 38 39 40 41 42 43 44 45 46 47 48 49 50

000
ASUS43 KFSD 210010
RWRSD

WEATHER ROUNDUP FOR SOUTH DAKOTA
NATIONAL WEATHER SERVICE SIOUX FALLS SD
700 PM CDT MON OCT 20 2014

NOTE: "FAIR" INDICATES FEW OR NO CLOUDS BELOW 12,000 FEET WITH NO
SIGNIFICANT WEATHER AND/OR OBSTRUCTIONS TO VISIBILITY.


SDZ001>005-009-010-012>017-210100-
NORTHWEST AND NORTH CENTRAL SOUTH DAKOTA

CITY           SKY/WX    TMP DP  RH WIND       PRES   REMARKS
BUFFALO          N/A     67  42  40 SE9       29.84F
FAITH            N/A     65  42  43 SE12      29.91S
MOBRIDGE       CLEAR     60  38  43 SE12      29.93F
$$

SDZ012>016-024>037-041>051-057-063-072>074-210100-
SOUTHWEST AND SOUTH CENTRAL SOUTH DAKOTA

CITY           SKY/WX    TMP DP  RH WIND       PRES   REMARKS
RAPID CTY ARPT CLEAR     68  46  45 S12       29.91S
PIERRE         CLEAR     63  39  41 E8        29.94F
CUSTER         CLEAR     61  39  44 S5        30.05S
ELLSWORTH AFB  CLEAR     68  47  45 S6        29.90F
PHILIP         CLEAR     64  43  46 E7        29.90S
PINE RIDGE     CLEAR     72  38  29 S10       29.95F
SPEARFISH      FAIR      61  48  63 S8        29.93F
WINNER         FAIR      68  40  35 SE10      29.98F
$$

SDZ004>011-016>023-039-040-210100-
NORTHEAST SOUTH DAKOTA

CITY           SKY/WX    TMP DP  RH WIND       PRES   REMARKS
ABERDEEN       CLEAR     55  34  45 SE6       30.01S
WATERTOWN      CLEAR     59  36  42 CALM      30.03S
SISSETON         N/A     49  39  68 E3        30.02S
$$

SDZ017-020-022-023-036>040-048>070-210100-
SOUTHEAST SOUTH DAKOTA

CITY           SKY/WX    TMP DP  RH WIND       PRES   REMARKS
SIOUX FALLS    CLEAR     59  37  44 W3        30.03S
HURON          CLEAR     61  33  35 SE5       30.01S
CHAMBERLAIN    CLEAR     61  38  42 SE7       29.99S
MITCHELL       CLEAR     59  36  42 SE6       30.03S
YANKTON        CLEAR     63  37  39 SE3       30.03F
$$

ABBREVIATIONS USED IN REMARKS
   TC - TEMPERATURE IN CELSIUS
  WCI - WIND CHILL INDEX
   HX - HEAT INDEX
  VSB - VISIBILITY




USA.gov is the U.S. government's official web portal to all federal, state and local government web resources and services.